• In Hungary
  • List of Countries
  • For 7 days
  • Water Temperature
  • Satellite Maps
  • Weather Map
  • News
  • Weather Widgets
  • user-avatar
    Login

    Hourly Weather Realeza

    Today, 15 November, Thursday

    Time Temperature Precipitation Wind Pressure Humidity
    00:00 +21°C° 0 mm 1 mps 718 mmHg 90%
    01:00 +20°C° 0 mm 1 mps 718 mmHg 89%
    02:00 +20°C° 0 mm 1 mps 718 mmHg 89%
    03:00 +19°C° 0 mm 1 mps 718 mmHg 89%
    04:00 +19°C° 0 mm 1 mps 718 mmHg 90%
    05:00 +18°C° 0 mm 1 mps 718 mmHg 90%
    06:00 +20°C° 0 mm 1 mps 719 mmHg 80%
    07:00 +23°C° 0 mm 2 mps 719 mmHg 70%
    08:00 +25°C° 0 mm 2 mps 720 mmHg 60%
    09:00 +27°C° 0 mm 2 mps 720 mmHg 52%
    10:00 +29°C° 0 mm 2 mps 720 mmHg 44%
    11:00 +31°C° 0 mm 2 mps 720 mmHg 36%
    12:00 +31°C° 0 mm 2 mps 719 mmHg 34%
    13:00 +31°C° 0 mm 2 mps 719 mmHg 33%
    14:00 +32°C° 0 mm 2 mps 718 mmHg 32%
    15:00 +30°C° 0 mm 2 mps 718 mmHg 39%
    16:00 +29°C° 0 mm 2 mps 717 mmHg 45%
    17:00 +28°C° 0 mm 2 mps 717 mmHg 52%
    18:00 +25°C° 0 mm 2 mps 717 mmHg 58%
    19:00 +23°C° 0 mm 2 mps 718 mmHg 64%
    20:00 +20°C° 0 mm 2 mps 718 mmHg 70%
    21:00 +19°C° 0 mm 2 mps 718 mmHg 71%
    22:00 +19°C° 0 mm 2 mps 718 mmHg 72%
    23:00 +18°C° 0 mm 2 mps 719 mmHg 73%

    Tomorrow, 16 November, Friday

    Time Temperature Precipitation Wind Pressure Humidity
    00:00 +18°C° 0 mm 2 mps 718 mmHg 74%
    01:00 +18°C° 0 mm 2 mps 718 mmHg 76%
    02:00 +18°C° 0 mm 2 mps 718 mmHg 77%
    03:00 +18°C° 0 mm 2 mps 718 mmHg 80%
    04:00 +19°C° 0 mm 2 mps 719 mmHg 84%
    05:00 +19°C° 0 mm 2 mps 719 mmHg 87%
    06:00 +23°C° 0 mm 2 mps 720 mmHg 80%
    07:00 +25°C° 0 mm 3 mps 720 mmHg 72%
    08:00 +27°C° 0 mm 3 mps 721 mmHg 64%
    09:00 +30°C° 0 mm 2 mps 721 mmHg 59%
    10:00 +32°C° 0 mm 2 mps 721 mmHg 53%
    11:00 +35°C° 0 mm 2 mps 721 mmHg 47%
    12:00 +35°C° 0 mm 2 mps 720 mmHg 44%
    13:00 +35°C° 0 mm 1 mps 719 mmHg 42%
    14:00 +35°C° 0 mm 1 mps 719 mmHg 39%
    15:00 +34°C° 0 mm 1 mps 718 mmHg 44%
    16:00 +33°C° 0 mm 1 mps 718 mmHg 49%
    17:00 +32°C° 0 mm 1 mps 718 mmHg 54%
    18:00 +30°C° 0 mm 1 mps 718 mmHg 58%
    19:00 +28°C° 0 mm 1 mps 718 mmHg 62%
    20:00 +26°C° 0 mm 1 mps 718 mmHg 66%
    21:00 +26°C° 0 mm 2 mps 719 mmHg 66%
    22:00 +25°C° 0 mm 2 mps 719 mmHg 66%
    23:00 +25°C° 0 mm 3 mps 719 mmHg 66%

    Day after tomorrow, 17 November, Saturday

    Time Temperature Precipitation Wind Pressure Humidity
    00:00 +25°C° 0 mm 3 mps 719 mmHg 66%
    01:00 +24°C° 0 mm 3 mps 719 mmHg 66%
    02:00 +24°C° 0 mm 3 mps 719 mmHg 65%
    03:00 +22°C° 0 mm 3 mps 719 mmHg 63%
    04:00 +21°C° 0 mm 3 mps 719 mmHg 61%
    05:00 +20°C° 0 mm 3 mps 719 mmHg 59%
    06:00 +22°C° 0 mm 3 mps 720 mmHg 55%
    07:00 +23°C° 0 mm 4 mps 720 mmHg 52%
    08:00 +26°C° 0 mm 4 mps 721 mmHg 49%
    09:00 +28°C° 0 mm 4 mps 720 mmHg 47%
    10:00 +30°C° 0 mm 3 mps 720 mmHg 45%
    11:00 +33°C° 0 mm 3 mps 720 mmHg 44%
    12:00 +34°C° 0 mm 3 mps 719 mmHg 43%
    13:00 +35°C° 0 mm 3 mps 718 mmHg 43%
    14:00 +36°C° 0 mm 3 mps 718 mmHg 42%
    15:00 +35°C° 0 mm 3 mps 717 mmHg 47%
    16:00 +34°C° 0 mm 3 mps 717 mmHg 52%
    17:00 +32°C° 0 mm 2 mps 716 mmHg 57%
    18:00 +30°C° 0 mm 2 mps 716 mmHg 61%
    19:00 +29°C° 0 mm 2 mps 717 mmHg 66%
    20:00 +27°C° 0 mm 2 mps 717 mmHg 70%
    21:00 +27°C° 0 mm 2 mps 717 mmHg 71%
    22:00 +27°C° 0 mm 3 mps 717 mmHg 71%
    23:00 +27°C° 0 mm 3 mps 717 mmHg 72%

    18 November, Sunday

    Time Temperature Precipitation Wind Pressure Humidity
    00:00 +26°C° 0 mm 3 mps 716 mmHg 73%
    01:00 +26°C° 0 mm 3 mps 715 mmHg 74%
    02:00 +26°C° 0 mm 3 mps 715 mmHg 75%
    03:00 +25°C° 0.4 mm 3 mps 715 mmHg 78%
    04:00 +25°C° 0.4 mm 2 mps 715 mmHg 82%
    05:00 +24°C° 0.4 mm 2 mps 716 mmHg 86%
    06:00 +24°C° 2.2 mm 1 mps 717 mmHg 87%
    07:00 +24°C° 2.2 mm 1 mps 717 mmHg 89%
    08:00 +24°C° 2.2 mm 1 mps 718 mmHg 90%
    09:00 +24°C° 5.8 mm 1 mps 718 mmHg 93%
    10:00 +21°C° 5.8 mm 0 mps 719 mmHg 95%
    11:00 +21°C° 5.8 mm 0 mps 719 mmHg 97%
    12:00 +24°C° 0.6 mm 1 mps 718 mmHg 94%
    13:00 +24°C° 0.6 mm 1 mps 718 mmHg 90%
    14:00 +25°C° 0.6 mm 1 mps 717 mmHg 87%
    15:00 +25°C° 0 mm 2 mps 717 mmHg 87%
    16:00 +24°C° 0 mm 2 mps 718 mmHg 88%
    17:00 +24°C° 0 mm 2 mps 718 mmHg 88%
    18:00 +23°C° 0 mm 2 mps 718 mmHg 89%
    19:00 +23°C° 0 mm 2 mps 719 mmHg 90%
    20:00 +21°C° 0 mm 2 mps 719 mmHg 91%
    21:00 +21°C° 0 mm 2 mps 719 mmHg 91%
    22:00 +20°C° 0 mm 2 mps 720 mmHg 92%
    23:00 +20°C° 0 mm 2 mps 720 mmHg 93%

    19 November, Monday

    Time Temperature Precipitation Wind Pressure Humidity
    00:00 +19°C° 0 mm 2 mps 719 mmHg 92%
    01:00 +19°C° 0 mm 2 mps 719 mmHg 92%
    02:00 +18°C° 0 mm 2 mps 719 mmHg 92%
    03:00 +18°C° 0 mm 2 mps 719 mmHg 91%
    04:00 +18°C° 0 mm 2 mps 719 mmHg 91%
    05:00 +17°C° 0 mm 2 mps 720 mmHg 91%
    06:00 +19°C° 0 mm 2 mps 720 mmHg 82%
    07:00 +21°C° 0 mm 2 mps 720 mmHg 74%
    08:00 +24°C° 0 mm 2 mps 721 mmHg 65%
    09:00 +27°C° 0 mm 2 mps 721 mmHg 57%
    10:00 +29°C° 0 mm 2 mps 720 mmHg 49%
    11:00 +31°C° 0 mm 2 mps 720 mmHg 40%
    12:00 +32°C° 0 mm 2 mps 719 mmHg 38%
    13:00 +32°C° 0 mm 2 mps 719 mmHg 35%
    14:00 +34°C° 0 mm 2 mps 718 mmHg 32%
    15:00 +31°C° 0 mm 2 mps 718 mmHg 38%
    16:00 +30°C° 0 mm 2 mps 718 mmHg 45%
    17:00 +28°C° 0 mm 2 mps 717 mmHg 51%
    18:00 +26°C° 0 mm 2 mps 718 mmHg 57%
    19:00 +23°C° 0 mm 2 mps 718 mmHg 63%
    20:00 +20°C° 0 mm 2 mps 719 mmHg 68%
    21:00 +20°C° 0 mm 2 mps 719 mmHg 72%
    22:00 +19°C° 0 mm 2 mps 719 mmHg 76%
    23:00 +20°C° 0 mm 1 mps 719 mmHg 80%

    20 November, Tuesday

    Time Temperature Precipitation Wind Pressure Humidity
    00:00 +19°C° 0 mm 2 mps 719 mmHg 83%
    01:00 +19°C° 0 mm 2 mps 719 mmHg 85%
    02:00 +19°C° 0 mm 2 mps 719 mmHg 88%
    03:00 +18°C° 0 mm 2 mps 719 mmHg 88%
    04:00 +18°C° 0 mm 2 mps 720 mmHg 88%
    05:00 +17°C° 0 mm 2 mps 720 mmHg 88%
    06:00 +19°C° 0 mm 2 mps 721 mmHg 79%
    07:00 +23°C° 0 mm 2 mps 721 mmHg 70%
    08:00 +25°C° 0 mm 2 mps 722 mmHg 61%
    09:00 +27°C° 0 mm 2 mps 722 mmHg 55%
    10:00 +30°C° 0 mm 1 mps 721 mmHg 49%
    11:00 +32°C° 0 mm 1 mps 721 mmHg 43%
    12:00 +33°C° 0 mm 1 mps 721 mmHg 40%
    13:00 +33°C° 0 mm 1 mps 720 mmHg 38%
    14:00 +34°C° 0 mm 1 mps 719 mmHg 35%
    15:00 +33°C° 0 mm 1 mps 719 mmHg 40%
    16:00 +31°C° 0 mm 1 mps 718 mmHg 46%
    17:00 +30°C° 0 mm 1 mps 718 mmHg 52%
    18:00 +28°C° 0 mm 1 mps 718 mmHg 57%
    19:00 +26°C° 0 mm 1 mps 719 mmHg 62%
    20:00 +23°C° 0 mm 1 mps 719 mmHg 67%
    21:00 +23°C° 0 mm 1 mps 719 mmHg 68%
    22:00 +23°C° 0 mm 2 mps 719 mmHg 69%
    23:00 +21°C° 0 mm 2 mps 719 mmHg 70%
    Show more